| time (UTC) | temp F | wind direction | speed MPH | gust MPH | rain 1hr in | rain 24hr in | rain mn in | humidity % | barometer mb |
| 20260901070016 | 54 | 0.0 | 0.0 | 0.00 | 0.00 | 0.00 | 96 | 1025.2 | |
| 20260901065016 | 53 | 0.0 | 0.0 | 0.00 | 0.00 | 0.00 | 95 | 1025.1 | |
| 20260901064016 | 52 | 0.0 | 0.0 | 0.00 | 0.00 | 0.00 | 95 | 1025.1 | |
| 20260901063037 | 52 | 0.0 | 0.0 | 0.00 | 0.00 | 0.00 | 95 | 1024.9 | |
| 20260901062016 | 51 | 0.0 | 0.0 | 0.00 | 0.00 | 0.00 | 95 | 1024.8 | |
| 20260901061016 | 51 | 0.0 | 0.0 | 0.00 | 0.00 | 0.00 | 94 | 1024.7 | |
| 20260901060017 | 50 | 0.0 | 0.0 | 0.00 | 0.00 | 0.00 | 94 | 1024.7 | |
| 20260901055016 | 50 | 0.0 | 0.0 | 0.00 | 0.00 | 0.00 | 94 | 1024.6 | |
| 20260901054019 | 50 | 0.0 | 0.0 | 0.00 | 0.00 | 0.00 | 93 | 1024.6 | |
| 20260901053037 | 49 | 0.0 | 0.0 | 0.00 | 0.01 | 0.00 | 93 | 1024.5 | |
| 20260901052016 | 49 | 0.0 | 0.0 | 0.00 | 0.01 | 0.00 | 93 | 1024.4 | |
| 20260901051056 | 49 | 0.0 | 0.0 | 0.00 | 0.01 | 0.00 | 92 | 1024.4 | |
| 20260901050017 | 49 | 0.0 | 0.0 | 0.00 | 0.01 | 0.00 | 92 | 1024.4 | |
| 20260901045017 | 49 | 0.0 | 0.0 | 0.00 | 0.01 | 0.00 | 92 | 1024.2 | |
| 20260901044016 | 50 | 0.0 | 0.0 | 0.00 | 0.01 | 0.00 | 92 | 1024.1 | |
| 20260901043016 | 50 | 0.0 | 0.0 | 0.00 | 0.01 | 0.00 | 92 | 1024.1 | |
| 20260901042018 | 50 | 0.0 | 0.0 | 0.00 | 0.01 | 0.00 | 92 | 1024.2 | |
| 20260901041016 | 50 | 0.0 | 0.0 | 0.00 | 0.01 | 0.00 | 91 | 1024.1 | |
| 20260901040016 | 51 | 0.0 | 0.0 | 0.00 | 0.01 | 0.00 | 91 | 1024.0 | |
| 20260901035037 | 51 | 0.0 | 0.0 | 0.00 | 0.01 | 0.00 | 91 | 1024.0 | |
| 20260901034018 | 51 | 0.0 | 0.0 | 0.00 | 0.01 | 0.00 | 91 | 1023.9 | |
| 20260901033016 | 51 | 0.0 | 0.0 | 0.00 | 0.01 | 0.00 | 91 | 1023.9 | |
| 20260901032016 | 52 | 0.0 | 0.0 | 0.00 | 0.01 | 0.00 | 91 | 1023.9 | |
| 20260901031017 | 52 | 0.0 | 0.0 | 0.00 | 0.01 | 0.00 | 91 | 1023.9 | |
| 20260901030016 | 52 | 0.0 | 0.0 | 0.00 | 0.01 | 0.00 | 90 | 1023.9 | |
| 20260901025016 | 53 | 0.0 | 0.0 | 0.00 | 0.01 | 0.00 | 90 | 1023.9 | |
| 20260901024016 | 53 | 0.0 | 0.0 | 0.00 | 0.01 | 0.00 | 90 | 1024.0 | |
| 20260901023037 | 54 | 0.0 | 0.0 | 0.00 | 0.01 | 0.00 | 90 | 1024.0 | |
| 20260901022017 | 54 | 0.0 | 0.0 | 0.00 | 0.01 | 0.00 | 90 | 1024.0 | |
| 20260901021016 | 54 | 0.0 | 0.0 | 0.00 | 0.01 | 0.00 | 90 | 1024.0 | |
| 20260901020017 | 55 | 0.0 | 0.0 | 0.00 | 0.01 | 0.00 | 89 | 1024.0 | |
| 20260901015016 | 55 | 0.0 | 0.0 | 0.00 | 0.01 | 0.00 | 89 | 1023.9 | |
| 20260901014016 | 55 | 0.0 | 0.0 | 0.00 | 0.02 | 0.00 | 89 | 1023.9 | |
| 20260901013017 | 56 | 0.0 | 0.0 | 0.00 | 0.02 | 0.00 | 89 | 1023.9 | |
| 20260901012016 | 56 | 0.0 | 0.0 | 0.00 | 0.02 | 0.00 | 88 | 1023.8 | |
| 20260901011016 | 56 | 0.0 | 0.0 | 0.00 | 0.02 | 0.00 | 88 | 1023.7 | |
| 20260901010017 | 56 | 0.0 | 0.0 | 0.00 | 0.02 | 0.00 | 87 | 1023.6 | |
| 20260901005018 | 57 | 0.0 | 0.0 | 0.00 | 0.02 | 0.00 | 87 | 1023.5 | |
| 20260901004016 | 57 | 0.0 | 0.0 | 0.00 | 0.03 | 0.00 | 86 | 1023.6 | |
| 20260901003016 | 57 | 0.0 | 0.0 | 0.00 | 0.03 | 0.00 | 85 | 1023.6 | |
| 20260901002016 | 58 | 0.0 | 0.0 | 0.00 | 0.03 | 0.00 | 85 | 1023.5 | |
| 20260901001016 | 58 | 0.0 | 0.0 | 0.00 | 0.03 | 0.00 | 84 | 1023.5 | |
| 20260901000037 | 58 | 0.0 | 0.0 | 0.00 | 0.04 | 0.00 | 84 | 1023.5 | |
| 20260831235017 | 59 | 0.0 | 0.0 | 0.00 | 0.04 | 0.00 | 84 | 1023.5 | |
| 20260831234017 | 59 | 0.0 | 1.0 | 0.00 | 0.09 | 0.00 | 83 | 1023.4 | |
| 20260831233016 | 59 | 0.0 | 1.0 | 0.00 | 0.09 | 0.00 | 83 | 1023.3 | |
| 20260831232016 | 60 | 0.0 | 1.0 | 0.00 | 0.09 | 0.00 | 83 | 1023.3 | |
| 20260831231018 | 60 | 0.0 | 1.0 | 0.00 | 0.09 | 0.00 | 82 | 1023.3 | |
| 20260831230017 | 60 | 0.0 | 1.0 | 0.00 | 0.09 | 0.00 | 82 | 1023.2 | |
| 20260831225017 | 60 | 0.0 | 1.0 | 0.00 | 0.09 | 0.09 | 81 | 1023.2 | |
| 20260831224019 | 60 | 0.0 | 1.0 | 0.00 | 0.09 | 0.09 | 81 | 1023.1 | |
| 20260831223038 | 61 | 0.0 | 2.0 | 0.00 | 0.09 | 0.09 | 80 | 1023.2 | |
| 20260831222017 | 61 | 0.0 | 1.0 | 0.00 | 0.09 | 0.09 | 79 | 1023.1 | |
| 20260831221036 | 61 | 0.0 | 1.0 | 0.00 | 0.09 | 0.09 | 79 | 1023.1 | |
| 20260831220057 | 61 | 0.0 | 1.0 | 0.00 | 0.09 | 0.09 | 78 | 1023.1 | |
| 20260831215018 | 61 | 0.0 | 1.0 | 0.00 | 0.09 | 0.09 | 77 | 1023.0 | |
| 20260831214018 | 61 | 225 | 1.0 | 3.0 | 0.00 | 0.09 | 0.09 | 77 | 1022.9 |
| 20260831213017 | 61 | 203 | 1.0 | 2.0 | 0.00 | 0.09 | 0.09 | 76 | 1022.8 |
| 20260831212017 | 62 | 0.0 | 2.0 | 0.00 | 0.09 | 0.09 | 75 | 1022.7 | |
| 20260831211018 | 62 | 0.0 | 0.0 | 0.00 | 0.09 | 0.09 | 74 | 1022.6 | |
| 20260831210017 | 62 | 0.0 | 0.0 | 0.00 | 0.09 | 0.09 | 73 | 1022.6 | |
| 20260831205020 | 62 | 180 | 1.0 | 3.0 | 0.00 | 0.09 | 0.09 | 73 | 1022.5 |
| 20260831204018 | 63 | 180 | 1.0 | 2.0 | 0.00 | 0.09 | 0.09 | 73 | 1022.4 |
| 20260831203016 | 63 | 180 | 1.0 | 2.0 | 0.00 | 0.09 | 0.09 | 72 | 1022.2 |
| 20260831202018 | 63 | 203 | 1.0 | 4.0 | 0.00 | 0.13 | 0.09 | 73 | 1022.1 |
| 20260831201017 | 63 | 0.0 | 0.0 | 0.00 | 0.13 | 0.09 | 72 | 1022.0 | |
| 20260831200016 | 64 | 180 | 1.0 | 2.0 | 0.00 | 0.13 | 0.09 | 72 | 1021.9 |
| 20260831195037 | 64 | 0.0 | 0.0 | 0.00 | 0.13 | 0.09 | 72 | 1021.7 | |
| 20260831194018 | 64 | 180 | 1.0 | 2.0 | 0.00 | 0.13 | 0.09 | 71 | 1021.6 |
| 20260831193036 | 65 | 0.0 | 2.0 | 0.00 | 0.13 | 0.09 | 69 | 1021.4 | |
| 20260831192017 | 66 | 0.0 | 1.0 | 0.00 | 0.13 | 0.09 | 68 | 1021.2 | |
| 20260831191017 | 66 | 0.0 | 1.0 | 0.00 | 0.13 | 0.09 | 67 | 1021.1 | |
| 20260831190016 | 67 | 0.0 | 1.0 | 0.00 | 0.13 | 0.09 | 66 | 1021.0 | |
| 20260831185017 | 67 | 0.0 | 1.0 | 0.00 | 0.13 | 0.09 | 65 | 1020.9 | |
| 20260831184019 | 68 | 68 | 1.0 | 3.0 | 0.00 | 0.13 | 0.09 | 65 | 1020.9 |
| 20260831183018 | 68 | 68 | 1.0 | 6.0 | 0.00 | 0.13 | 0.09 | 65 | 1020.7 |
| 20260831182018 | 69 | 23 | 1.0 | 3.0 | 0.00 | 0.13 | 0.09 | 66 | 1020.6 |
| 20260831181017 | 69 | 45 | 1.0 | 3.0 | 0.00 | 0.13 | 0.09 | 66 | 1020.4 |
| 20260831180020 | 70 | 225 | 1.0 | 2.0 | 0.00 | 0.13 | 0.09 | 65 | 1020.2 |
| 20260831175018 | 70 | 23 | 1.0 | 5.0 | 0.00 | 0.13 | 0.09 | 63 | 1020.0 |
| 20260831174017 | 71 | 68 | 1.0 | 6.0 | 0.00 | 0.13 | 0.09 | 64 | 1020.0 |
| 20260831173017 | 71 | 68 | 1.0 | 4.0 | 0.00 | 0.13 | 0.09 | 64 | 1019.8 |
| 20260831172022 | 72 | 0.0 | 2.0 | 0.00 | 0.13 | 0.09 | 64 | 1019.7 | |
| 20260831171017 | 72 | 23 | 1.0 | 4.0 | 0.00 | 0.13 | 0.09 | 64 | 1019.6 |
| 20260831170017 | 72 | 338 | 1.0 | 4.0 | 0.00 | 0.13 | 0.09 | 63 | 1019.5 |
| 20260831165017 | 72 | 270 | 1.0 | 2.0 | 0.00 | 0.13 | 0.09 | 63 | 1019.3 |
| 20260831164017 | 73 | 338 | 1.0 | 2.0 | 0.00 | 0.13 | 0.09 | 62 | 1019.3 |
| 20260831163018 | 74 | 180 | 1.0 | 3.0 | 0.00 | 0.13 | 0.09 | 61 | 1019.1 |
| 20260831162020 | 75 | 45 | 2.0 | 5.0 | 0.00 | 0.13 | 0.09 | 58 | 1019.0 |
| 20260831161017 | 75 | 225 | 2.0 | 5.0 | 0.00 | 0.13 | 0.09 | 57 | 1018.9 |
| 20260831160018 | 75 | 225 | 1.0 | 5.0 | 0.00 | 0.13 | 0.09 | 58 | 1018.8 |
| 20260831155017 | 74 | 45 | 2.0 | 5.0 | 0.00 | 0.13 | 0.09 | 58 | 1018.7 |
| 20260831154018 | 74 | 338 | 1.0 | 5.0 | 0.00 | 0.13 | 0.09 | 59 | 1018.6 |
| 20260831153017 | 75 | 180 | 1.0 | 5.0 | 0.00 | 0.13 | 0.09 | 56 | 1018.5 |
| 20260831152017 | 76 | 68 | 1.0 | 4.0 | 0.00 | 0.13 | 0.09 | 56 | 1018.5 |
| 20260831151017 | 76 | 225 | 1.0 | 4.0 | 0.00 | 0.13 | 0.09 | 57 | 1018.3 |
| 20260831150017 | 78 | 0 | 1.0 | 5.0 | 0.00 | 0.13 | 0.09 | 55 | 1018.4 |
| 20260831145017 | 77 | 225 | 2.0 | 6.0 | 0.00 | 0.13 | 0.09 | 58 | 1018.3 |
| 20260831144017 | 76 | 225 | 2.0 | 4.0 | 0.00 | 0.13 | 0.09 | 57 | 1018.2 |
| 20260831143017 | 77 | 225 | 3.0 | 6.0 | 0.00 | 0.14 | 0.09 | 56 | 1018.1 |
| 20260831142017 | 77 | 248 | 1.0 | 4.0 | 0.00 | 0.14 | 0.09 | 59 | 1018.1 |
| 20260831141017 | 75 | 68 | 1.0 | 5.0 | 0.00 | 0.14 | 0.09 | 65 | 1018.1 |
| 20260831140017 | 73 | 203 | 1.0 | 4.0 | 0.00 | 0.14 | 0.09 | 64 | 1018.0 |
| 20260831135017 | 73 | 0 | 2.0 | 4.0 | 0.00 | 0.14 | 0.09 | 63 | 1017.9 |
| 20260831134017 | 73 | 45 | 1.0 | 3.0 | 0.00 | 0.14 | 0.09 | 64 | 1017.8 |
| 20260831133017 | 71 | 68 | 1.0 | 4.0 | 0.00 | 0.14 | 0.09 | 66 | 1017.9 |
| 20260831132018 | 72 | 23 | 1.0 | 5.0 | 0.00 | 0.14 | 0.09 | 64 | 1017.7 |
| 20260831131017 | 72 | 338 | 1.0 | 6.0 | 0.00 | 0.14 | 0.09 | 64 | 1017.4 |
| 20260831130017 | 73 | 180 | 2.0 | 4.0 | 0.00 | 0.14 | 0.09 | 63 | 1017.3 |
| 20260831125017 | 73 | 225 | 1.0 | 3.0 | 0.00 | 0.14 | 0.09 | 65 | 1017.2 |
| 20260831124018 | 72 | 225 | 2.0 | 6.0 | 0.00 | 0.14 | 0.09 | 69 | 1017.2 |
| 20260831123037 | 71 | 68 | 2.0 | 5.0 | 0.00 | 0.14 | 0.09 | 66 | 1017.0 |
| 20260831122017 | 71 | 45 | 1.0 | 4.0 | 0.00 | 0.14 | 0.09 | 67 | 1016.9 |
| 20260831121017 | 72 | 225 | 2.0 | 4.0 | 0.00 | 0.14 | 0.09 | 63 | 1016.7 |
| 20260831120017 | 73 | 225 | 2.0 | 6.0 | 0.00 | 0.14 | 0.09 | 64 | 1016.5 |
| 20260831115057 | 72 | 225 | 3.0 | 8.0 | 0.00 | 0.14 | 0.09 | 64 | 1016.4 |
| 20260831114017 | 73 | 45 | 1.0 | 3.0 | 0.00 | 0.14 | 0.09 | 66 | 1016.3 |
| 20260831113017 | 73 | 248 | 2.0 | 5.0 | 0.00 | 0.14 | 0.09 | 63 | 1016.2 |
| 20260831112017 | 73 | 0 | 2.0 | 5.0 | 0.00 | 0.14 | 0.09 | 69 | 1016.0 |
| 20260831111018 | 72 | 45 | 1.0 | 4.0 | 0.00 | 0.14 | 0.09 | 70 | 1016.0 |
| 20260831110037 | 71 | 68 | 2.0 | 8.0 | 0.00 | 0.14 | 0.09 | 71 | 1015.8 |
| 20260831105017 | 70 | 180 | 1.0 | 4.0 | 0.00 | 0.14 | 0.09 | 76 | 1015.7 |
| 20260831104018 | 69 | 225 | 2.0 | 7.0 | 0.00 | 0.14 | 0.09 | 78 | 1015.7 |
| 20260831103017 | 67 | 90 | 1.0 | 4.0 | 0.00 | 0.14 | 0.09 | 79 | 1015.6 |
| 20260831102017 | 66 | 225 | 2.0 | 5.0 | 0.00 | 0.14 | 0.09 | 80 | 1015.5 |
| 20260831101017 | 66 | 203 | 1.0 | 2.0 | 0.00 | 0.14 | 0.09 | 81 | 1015.4 |
| 20260831100017 | 65 | 68 | 1.0 | 4.0 | 0.00 | 0.14 | 0.09 | 83 | 1015.2 |
| 20260831095017 | 64 | 203 | 2.0 | 6.0 | 0.00 | 0.14 | 0.09 | 84 | 1015.2 |
| 20260831094037 | 64 | 113 | 1.0 | 4.0 | 0.00 | 0.14 | 0.09 | 85 | 1015.2 |
| 20260831093017 | 63 | 225 | 1.0 | 4.0 | 0.00 | 0.14 | 0.09 | 84 | 1015.0 |
| 20260831092017 | 63 | 225 | 2.0 | 9.0 | 0.00 | 0.14 | 0.09 | 84 | 1014.9 |
| 20260831091058 | 63 | 338 | 1.0 | 4.0 | 0.00 | 0.14 | 0.09 | 86 | 1014.7 |
| 20260831090017 | 63 | 68 | 1.0 | 3.0 | 0.00 | 0.14 | 0.09 | 87 | 1014.5 |
| 20260831085017 | 62 | 225 | 1.0 | 4.0 | 0.00 | 0.14 | 0.09 | 87 | 1014.5 |
| 20260831084017 | 62 | 248 | 2.0 | 6.0 | 0.00 | 0.14 | 0.09 | 87 | 1014.3 |
| 20260831083017 | 62 | 225 | 1.0 | 4.0 | 0.00 | 0.15 | 0.09 | 88 | 1014.0 |
| 20260831082017 | 62 | 225 | 2.0 | 7.0 | 0.00 | 0.15 | 0.09 | 89 | 1013.9 |
| 20260831081037 | 61 | 180 | 1.0 | 6.0 | 0.00 | 0.15 | 0.09 | 90 | 1013.7 |
| 20260831080037 | 61 | 203 | 2.0 | 6.0 | 0.00 | 0.15 | 0.09 | 90 | 1013.5 |
| 20260831075038 | 60 | 203 | 2.0 | 5.0 | 0.00 | 0.15 | 0.09 | 91 | 1013.4 |
| 20260831074017 | 60 | 203 | 1.0 | 5.0 | 0.00 | 0.15 | 0.09 | 91 | 1013.3 |
| 20260831073017 | 60 | 225 | 2.0 | 4.0 | 0.00 | 0.15 | 0.09 | 92 | 1013.3 |
| 20260831072017 | 59 | 225 | 2.0 | 5.0 | 0.00 | 0.15 | 0.09 | 92 | 1013.1 |
| 20260831071017 | 59 | 203 | 2.0 | 5.0 | 0.00 | 0.15 | 0.09 | 93 | 1013.0 |